星链-4007 (STARLINK-4007 )

导读

STARLINK-4007是美国太空探索技术公司(SpaceX)星链星座的一员,于北京时间2022年5月18日发射入轨。星链项目旨在构建全球卫星互联网通信系统,该卫星承担为全球偏远地区、海洋空域等提供宽带网络接入服务的任务,进一步完善了星链星座的全球覆盖与服务能力。

Basic Information
目录编号:
52707
目录名称:
STARLINK-4007
国际标识:
2022-053BD
轨道中心:
EARTH
卫星名称:
星链-4007
卫星全名:
星链-4007 (STARLINK-4007 )
卫星状态:
在轨 (已飞行1491 天)
发射日期:
2022-05-18 UTC
国别 :
美国 (US)
星等 :
--
Orbit Information
数据来源 国际轨道数据 AOE轨道数据
星历时间 2026-06-17T07:39:12+0800
15小时前
查看轨道信息
2026-06-11T00:00:00+0800
6天前
查看轨道信息
半长轴 6912.219km 6912.815km
偏心率 0.000237 0.0001858
轨道倾角 53.216° 53.220°
近地点辐角 106.486° 100.180°
升交点赤经 47.887° 76.324°
平近点角 253.640° 77.955°
近地点 532.443km 533.393km
远地点 535.721km 535.963km
周期 95.320分钟 95.333分钟
每日圈数 15.106941 15.10499
Detailed Information
固有亮度:
5
最大亮度:
2.5
卫星平台:
Starlink v1.5
覆盖范围:
全球
运营商:
太空探索技术公司
运营商所在国:
美国
制造商(研发单位):
太空探索技术公司
制造商所在国:
美国
使用方式:
暂无
Satellite Introduction
星链(Starlink)计划是由太空探索技术公司(SpaceX)提出的一个巨型低轨卫星互联网星座项目,计划在2019年至2024年间在太空搭建由约1.2万颗卫星组成的“星链”网络,其中1584颗将部署在地球上空550千米处的近地轨道,并从2020年开始工作。该卫星仍在工作。
2D Orbit Map
3D Orbit Map
Orbit Altitude Analysis Chart
Orbit Inclination Analysis Chart
Orbit Comprehensive Analysis Chart
View Comprehensive Chart